Meeting du Muguet

Départementale

TAGOLSHEIM

Le Mercredi 01 Mai 2013

Bassin de 25m

50 Nage Libre Messieurs

Séries

Nom Année Club Pays Temps Points Niv.
1 LE BRAS Florian 1994 MULHOUSE ON FRA 0:25:84 1071
2 WILLNAT Luis 1997 MULHOUSE ON FRA 0:26:54 1023
3 MULLER Matthieu 1993 CN ILE DU RHIN FRA 0:27:08 987
4 CANTARUTTI Pierre 1992 A.N.S D'ILLFURTH FRA 0:27:49 960
5 GRABIS Mehdi 1995 THANN OLYMPIC N FRA 0:27:60 953
6 PELAGATTI Kenzo 1999 MULHOUSE ON FRA 0:27:86 937
7 MEYER Christophe 1995 THANN OLYMPIC N FRA 0:28:32 907
8 BRAVO Luca 1998 A.N.S D'ILLFURTH FRA 0:28:62 888
9 KOMAR Jiri 1998 RÉPUBLIQUE TCHÈQUE CZE 0:29:07 860
10 DEWULF Mickael 1995 CLUB NAUTIQUE DE LA DOLLER FRA 0:29:09 859
11 ROCHEMONT Ludovic 1999 MULHOUSE ON FRA 0:29:19 853
12 BECK Vincent 1997 MULHOUSE ON FRA 0:29:38 841
13 KUBLER Alexis 1999 CNHT WESSERLING FRA 0:29:74 820
14 SEBESTA David 1999 RÉPUBLIQUE TCHÈQUE CZE 0:30:61 768
15 MEYER Quentin 1995 A.N.S D'ILLFURTH FRA 0:30:78 758
16 MEYER Florian 1995 A.N.S D'ILLFURTH FRA 0:30:96 748
17 FUCHS Tristan 1998 MULHOUSE ON FRA 0:31:09 741
18 LAMOLINAIRIE Quentin 1998 CN ILE DU RHIN FRA 0:31:49 718
19 DEWULF Florian 1997 CLUB NAUTIQUE DE LA DOLLER FRA 0:31:68 707
20 HAGENBACH Yann 1993 A.N.S D'ILLFURTH FRA 0:31:70 706
21 WIOLAND Guillaume 1996 A.N.S D'ILLFURTH FRA 0:31:91 694
22 NICOLLE Anthony 1985 CLUB NAUTIQUE DE LA DOLLER FRA 0:31:96 692
23 REICHEL Alexandre 2002 MULHOUSE ON FRA 0:32:30 673
24 BIRO Charly 1999 CN SAUSHEIM FRA 0:32:34 671
25 BOURRE Maxime 1998 CNHT WESSERLING FRA 0:32:81 645
26 SCHMITT Dominique 1968 CLUB NAUTIQUE DE LA DOLLER FRA 0:32:92 640
27 GUR Ludovic 1998 A.N.S D'ILLFURTH FRA 0:32:99 636
28 ALLENBACH Lucas 2000 CNHT WESSERLING FRA 0:33:19 625
29 PREVOST Antoine 1998 CN ILE DU RHIN FRA 0:33:65 601
30 PREVOT Noah 2001 KAYSERSBERG NATATION FRA 0:34:91 538
31 WALTZER Thomas 2001 A.N.S D'ILLFURTH FRA 0:34:92 538
32 TURPIN Matheo 2001 SR CERNAY FRA 0:35:01 533
33 LEBER Léo 1999 A.N.S D'ILLFURTH FRA 0:35:24 522
34 MANDRY Olivier 1992 CN ILE DU RHIN FRA 0:35:46 512
35 ESTEVES Théo 2001 MULHOUSE ON FRA 0:35:90 491
36 LAMOLINAIRIE Théo 2001 CN ILE DU RHIN FRA 0:35:90 491
37 PFLIEGER Damien 1997 A.N.S D'ILLFURTH FRA 0:36:23 476
38 EDDAHDOUHI Fahmi 2000 A.N.S D'ILLFURTH FRA 0:37:35 426
39 HELM Lucas 2001 CN ILE DU RHIN FRA 0:37:45 422
40 MASSON Nathanaël 2002 KAYSERSBERG NATATION FRA 0:38:00 398
41 GUR Fabien 2000 A.N.S D'ILLFURTH FRA 0:38:16 392
42 LUMIA Hugo 2001 CNHT WESSERLING FRA 0:38:26 387
43 MANYIM Franck 2001 CNHT WESSERLING FRA 0:38:52 377
44 BOLLECKER Ange 1998 CNHT WESSERLING FRA 0:38:56 375
45 BARNY Paul-Maxence 2002 MULHOUSE ON FRA 0:39:24 348
46 GUTMANN Nicolas 2003 SR CERNAY FRA 0:39:61 334
47 GUERRIERI Hugo 2001 A.N.S D'ILLFURTH FRA 0:40:29 308
48 STUDER Thomas 2003 CNHT WESSERLING FRA 0:40:69 294
49 NAEGELEN Thibaud 2003 CNHT WESSERLING FRA 0:41:36 270
50 SIMONIN Célian 2000 CLUB NAUTIQUE DE LA DOLLER FRA 0:41:40 269
51 DURRAC Kyllian 2002 CN ILE DU RHIN FRA 0:41:77 256
52 FREY Nicolas 2001 THANN OLYMPIC N FRA 0:41:90 252
53 ROCHEMONT Arthur 2002 MULHOUSE ON FRA 0:42:50 232
54 CANALE Loïc 2003 A.N.S D'ILLFURTH FRA 0:43:14 212
55 HEITZ Loïc 2002 A.N.S D'ILLFURTH FRA 0:43:57 199
56 BERBETT Emilien 2002 A.N.S D'ILLFURTH FRA 0:43:66 196
57 NADALIN William 2001 A.N.S D'ILLFURTH FRA 0:44:10 184
58 FREY Thibaut 2001 THANN OLYMPIC N FRA 0:44:51 172
59 MUNSCH Maxime 2002 CNHT WESSERLING FRA 0:44:52 172
60 BOEGLIN Xavier 2003 MULHOUSE ON FRA 0:44:87 162
61 SEHER Matheo 2002 MULHOUSE ON FRA 0:45:46 147
62 GHERARDI Thomas 2001 A.N.S D'ILLFURTH FRA 0:46:82 114
63 LUHOVY Jan 2003 RÉPUBLIQUE TCHÈQUE CZE 0:47:56 98
64 HUG-DREYFUS Neal 2005 MULHOUSE ON FRA 0:47:78 94
65 MARTIN Théo 2002 A.N.S D'ILLFURTH FRA 0:48:21 85
66 FABRE Charles 2002 CN ILE DU RHIN FRA 0:49:40 64
67 HOSTETTER Théo 2002 A.N.S D'ILLFURTH FRA 0:50:96 40
68 BEDEZ Simon 2002 KAYSERSBERG NATATION FRA 0:51:16 38
69 PRUVOST Hugo 2003 A.N.S D'ILLFURTH FRA 0:59:00 1
70 KOMURIAN Baptiste 2003 KAYSERSBERG NATATION FRA 1:00:17 1
71 COLLET Samuel 2003 KAYSERSBERG NATATION FRA 1:02:31 1
72 ARNOLD Florimon 2002 CNHT WESSERLING FRA 1:09:74 1
73 BINGLER Harold 2002 MULHOUSE ON FRA - Disq.
74 ZURCHER Antoine 1998 CN SAUSHEIM FRA - Disq.
75 FICARA Santo 1998 CLUB NAUTIQUE DE LA DOLLER FRA - Disq.